[[{"header":{"parameterUnit":"m.s-1","parameterCategory":2,"la1":30.2991,"la2":30.254,"lo1":-89.0895,"lo2":-89.0444,"dy":0.0017,"dx":0.0017,"nx":28,"ny":28,"refTime":"2023-10-06T09:00:00:Z","depth":"0","parameterNumber":2,"parameterNumberName":"U-component_of_CURRENTS"},"data":[0,0,0,0,0,0,0,0,0,0,0,0,0,0,0,0,0,0,0,0,0,0,0,0,0,0,0,0,0,0,0,0,0,0,0,0,0,0,0,0,0,0,0,0,0,0,0,0,0,0,0,0,0,0,0,0,0,0,-0.1977,-0.1977,0,-0.1987,-0.1987,-0.1987,-0.1974,-0.1974,-0.1974,-0.1973,-0.1945,-0.1944,-0.1944,0,0,0,0,0,0,0,0,0,0,0,0,0,-0.1941,-0.1942,-0.1977,-0.1977,-0.1978,-0.1987,-0.1987,-0.1987,-0.1974,-0.1974,-0.1974,-0.1973,-0.1945,-0.1944,-0.1944,0,0,0,0,0,0,0,0,0,0,0,0,0,-0.1953,-0.1942,-0.1977,-0.1974,-0.1974,-0.1987,-0.1987,-0.1987,-0.1974,-0.1974,-0.1973,-0.1973,-0.1945,-0.1944,-0.1944,-0.1948,0,0,-0.1941,-0.1941,0,0,0,0,0,0,0,0,-0.1952,-0.1954,-0.1974,-0.1974,-0.1974,-0.198,-0.1964,-0.1973,-0.1974,-0.1972,-0.1973,-0.1973,-0.1954,-0.1953,-0.1954,-0.1947,-0.1945,-0.1941,-0.1941,-0.194,-0.194,0,0,0,0,0,0,0,-0.1952,-0.1954,-0.1979,-0.1974,-0.1974,-0.197,-0.1971,-0.1965,-0.1964,-0.1972,-0.1972,-0.1976,-0.1954,-0.1955,-0.1953,-0.1945,-0.1941,-0.1941,-0.194,-0.194,-0.1953,-0.1953,0,0,0,0,0,0,-0.1955,-0.1953,-0.1979,-0.198,-0.1964,-0.1971,-0.1972,-0.1977,-0.1965,-0.1963,-0.1976,-0.1975,-0.1956,-0.1954,-0.1952,-0.1965,-0.194,-0.194,-0.1939,-0.1952,-0.1953,-0.1954,0,0,0,0,0,0,-0.1954,-0.1957,-0.1979,-0.1968,-0.197,-0.1972,-0.1978,-0.1978,-0.1977,-0.1968,-0.1966,-0.1976,-0.1956,-0.1953,-0.1952,-0.1963,-0.1939,-0.1939,-0.1951,-0.1952,-0.1953,-0.1985,0,0,0,0,0,0,-0.1953,-0.1957,-0.1957,-0.1968,-0.1971,-0.1989,-0.1979,-0.1978,-0.1981,-0.198,-0.1967,-0.1964,-0.1955,-0.1953,-0.1951,-0.1962,-0.1938,-0.195,-0.1952,-0.1953,-0.1983,-0.1987,-0.199,0,0,0,0,0,-0.1952,-0.1957,-0.1957,-0.196,-0.1973,-0.199,-0.1991,-0.1989,-0.1982,-0.1986,-0.1979,-0.1965,-0.1961,-0.1953,-0.1951,-0.1961,-0.1949,-0.1951,-0.1953,-0.1981,-0.1986,-0.199,0,0,0,0,0,0,-0.1941,-0.1957,-0.1957,-0.1966,-0.1978,-0.1988,-0.1989,-0.1991,-0.1989,-0.1983,-0.1972,-0.1969,-0.1975,-0.1965,-0.1956,-0.197,-0.1954,-0.1955,-0.1976,-0.1981,-0.1985,-0.1985,-0.1938,0,0,0,0,0,-0.1939,-0.1946,-0.1963,-0.1968,-0.1975,-0.1982,-0.1986,-0.1989,-0.1992,-0.199,-0.1983,-0.1978,-0.1981,-0.1978,-0.1977,-0.1981,-0.1977,-0.1987,-0.1991,-0.1994,-0.1994,-0.2004,-0.2009,-0.1959,-0.1959,-0.1959,0,0,-0.1936,-0.1945,-0.1948,-0.1966,-0.1972,-0.1989,-0.1982,-0.1992,-0.2006,-0.1987,-0.1994,-0.1991,-0.1986,-0.1995,-0.1996,-0.1986,-0.2008,-0.1996,-0.1999,-0.1997,-0.2007,-0.2011,-0.2015,-0.1961,-0.196,-0.196,0,0,-0.1936,-0.1941,-0.1948,-0.1963,-0.1978,-0.1988,-0.1993,-0.2006,-0.2009,-0.202,-0.2014,-0.2019,-0.2015,-0.202,-0.2021,-0.2046,-0.203,-0.2043,-0.2059,-0.2069,-0.2073,-0.2077,-0.2084,-0.2087,-0.2042,-0.2043,-0.2043,0,-0.1929,-0.1942,-0.1953,-0.1969,-0.1981,-0.1991,-0.2006,-0.2018,-0.2029,-0.2037,-0.2025,-0.2038,-0.2031,-0.2051,-0.2057,-0.2054,-0.2053,-0.2041,-0.2074,-0.2077,-0.208,-0.2086,-0.209,-0.2044,-0.2044,-0.2044,-0.2044,0,-0.1937,-0.1951,-0.1958,-0.1982,-0.1998,-0.2011,-0.2036,-0.2051,-0.2054,-0.2064,-0.2081,-0.2076,-0.2082,-0.2085,-0.2075,-0.2097,-0.2088,-0.208,-0.2061,-0.2087,-0.2092,-0.2095,-0.2047,-0.2046,-0.2046,-0.2045,0,0,-0.191,-0.1954,-0.1955,-0.1972,-0.2005,-0.2021,-0.2052,-0.2081,-0.2103,-0.2108,-0.213,-0.2135,-0.2128,-0.2129,-0.2122,-0.2128,-0.2147,-0.2109,-0.2108,-0.2113,-0.2166,-0.2183,-0.2188,-0.2142,-0.2142,-0.2143,-0.2163,0,-0.1909,-0.194,-0.1963,-0.1996,-0.2015,-0.2045,-0.2075,-0.2106,-0.2125,-0.2151,-0.2154,-0.2167,-0.2147,-0.2147,-0.2153,-0.2148,-0.2156,-0.2142,-0.2142,-0.2142,-0.2152,-0.2192,-0.2183,-0.2202,-0.2166,-0.2167,-0.2167,0,-0.1902,-0.1927,-0.1955,-0.2009,-0.202,-0.2042,-0.2093,-0.2123,-0.2169,-0.2179,-0.2196,-0.2201,-0.2212,-0.2189,-0.2198,-0.2187,-0.2178,-0.2174,-0.2174,-0.218,-0.2165,-0.217,-0.2209,-0.2176,-0.2172,-0.2171,-0.2171,0,-0.187,-0.192,-0.194,-0.1957,-0.2019,-0.2038,-0.207,-0.2124,-0.2157,-0.2194,-0.2217,-0.223,-0.2239,-0.2232,-0.2228,-0.2208,-0.2241,-0.2213,-0.2224,-0.2224,-0.2212,-0.2211,-0.2218,-0.2224,-0.2224,-0.2224,-0.2224,0,-0.1856,-0.1873,-0.1926,-0.1939,-0.197,-0.202,-0.2059,-0.2097,-0.2157,-0.2192,-0.2221,-0.2251,-0.2249,-0.2272,-0.225,-0.2259,-0.2261,-0.2237,-0.2237,-0.2224,-0.2224,-0.219,-0.2177,-0.2225,-0.2225,-0.2225,-0.2224,0,-0.181,-0.1849,-0.1875,-0.1934,-0.1954,-0.1973,-0.2049,-0.2078,-0.2142,-0.2191,-0.2202,-0.2269,-0.2293,-0.2307,-0.2308,-0.2296,-0.227,-0.2297,-0.2284,-0.2282,-0.2247,-0.2237,-0.2218,-0.2167,-0.2301,-0.2301,-0.2302,0,-0.1786,-0.1792,-0.1851,-0.1864,-0.1885,-0.1928,-0.1956,-0.2044,-0.2078,-0.2198,-0.2211,-0.2282,-0.2324,-0.2362,-0.2369,-0.2368,-0.2294,-0.2332,-0.2293,-0.2258,-0.2245,-0.22,-0.2153,-0.2287,-0.2287,-0.2287,-0.2288,0,-0.1724,-0.1741,-0.176,-0.1795,-0.1822,-0.1862,-0.1911,-0.1949,-0.2051,-0.2124,-0.2215,-0.2277,-0.2364,-0.2397,-0.2423,-0.2393,-0.2286,-0.2337,-0.2303,-0.2246,-0.2194,-0.2139,-0.2257,-0.229,-0.229,-0.229,-0.229,-0.229,-0.1656,-0.1655,-0.1681,-0.1707,-0.1742,-0.1772,-0.1782,-0.1871,-0.195,-0.2077,-0.2169,-0.2311,-0.2393,-0.2452,-0.2435,-0.239,-0.2329,-0.2294,-0.2288,-0.2246,-0.219,-0.2319,-0.2352,-0.2352,-0.2352,-0.2352,-0.2352,0,-0.1566,-0.1577,-0.1592,-0.1624,-0.1626,-0.1676,-0.1729,-0.1747,-0.1826,-0.2037,-0.2152,-0.2394,-0.2418,-0.2473,-0.248,-0.2384,-0.2287,-0.2258,-0.2183,-0.2136,-0.2259,-0.2252,-0.2263,-0.2263,-0.2263,-0.2263,-0.2263,-0.2263,-0.1517,-0.1499,-0.1516,-0.1495,-0.1513,-0.1496,-0.1506,-0.1576,-0.1711,-0.1967,-0.2226,-0.2457,-0.2541,-0.2603,-0.2492,-0.2359,-0.2224,-0.2146,-0.2089,-0.2179,-0.2181,-0.2182,-0.2172,-0.2166,-0.2166,-0.1924,-0.1922,-0.1921]},{"header":{"parameterUnit":"m.s-1","parameterCategory":2,"la1":30.2991,"la2":30.254,"lo1":-89.0895,"lo2":-89.0444,"dy":0.0017,"dx":0.0017,"nx":28,"ny":28,"refTime":"2023-10-06T09:00:00:Z","depth":"0","parameterNumber":3,"parameterNumberName":"V-component_of_CURRENTS"},"data":[0,0,0,0,0,0,0,0,0,0,0,0,0,0,0,0,0,0,0,0,0,0,0,0,0,0,0,0,0,0,0,0,0,0,0,0,0,0,0,0,0,0,0,0,0,0,0,0,0,0,0,0,0,0,0,0,0,0,-0.0362,-0.0361,0,-0.0298,-0.0297,-0.0296,-0.0258,-0.0258,-0.0258,-0.0258,-0.0202,-0.02,-0.0199,0,0,0,0,0,0,0,0,0,0,0,0,0,-0.0424,-0.0423,-0.0362,-0.0361,-0.0361,-0.0298,-0.0297,-0.0296,-0.0258,-0.0258,-0.0258,-0.0258,-0.0202,-0.02,-0.0199,0,0,0,0,0,0,0,0,0,0,0,0,0,-0.0382,-0.0423,-0.0362,-0.0334,-0.0331,-0.0298,-0.0297,-0.0296,-0.0259,-0.0258,-0.0258,-0.0258,-0.0203,-0.0201,-0.0199,-0.019,0,0,-0.0192,-0.0191,0,0,0,0,0,0,0,0,-0.0385,-0.038,-0.0339,-0.0336,-0.0333,-0.0286,-0.0298,-0.0261,-0.0259,-0.0286,-0.0258,-0.0258,-0.0231,-0.0226,-0.0214,-0.0188,-0.0185,-0.0192,-0.0191,-0.019,-0.0189,0,0,0,0,0,0,0,-0.0388,-0.0382,-0.0337,-0.0338,-0.0334,-0.0315,-0.0309,-0.029,-0.0261,-0.0284,-0.0281,-0.0274,-0.0229,-0.0217,-0.0213,-0.0184,-0.0192,-0.019,-0.0189,-0.0188,-0.0152,-0.0152,0,0,0,0,0,0,-0.0397,-0.0385,-0.0339,-0.0335,-0.0359,-0.0314,-0.0308,-0.0301,-0.026,-0.0254,-0.0274,-0.0272,-0.022,-0.0215,-0.0211,-0.0202,-0.019,-0.0188,-0.0187,-0.0151,-0.0152,-0.0152,0,0,0,0,0,0,-0.0399,-0.0394,-0.0341,-0.0358,-0.035,-0.0314,-0.0306,-0.03,-0.0287,-0.0253,-0.0247,-0.0268,-0.022,-0.0214,-0.0194,-0.02,-0.0187,-0.0185,-0.0151,-0.0151,-0.0152,-0.0183,0,0,0,0,0,0,-0.0401,-0.0395,-0.0396,-0.0359,-0.035,-0.0326,-0.0306,-0.0299,-0.0283,-0.0281,-0.0246,-0.0241,-0.0219,-0.0197,-0.0192,-0.0197,-0.0184,-0.0151,-0.0151,-0.0152,-0.0182,-0.0185,-0.0187,0,0,0,0,0,-0.0404,-0.0406,-0.0396,-0.0391,-0.0351,-0.0326,-0.032,-0.0293,-0.0284,-0.028,-0.0255,-0.0242,-0.0197,-0.0195,-0.0189,-0.0194,-0.015,-0.0151,-0.0152,-0.0181,-0.0184,-0.0187,0,0,0,0,0,0,-0.0433,-0.0401,-0.039,-0.0382,-0.0359,-0.032,-0.0315,-0.0296,-0.0273,-0.0272,-0.024,-0.0233,-0.0219,-0.0203,-0.0202,-0.0185,-0.0173,-0.0173,-0.0198,-0.02,-0.0203,-0.0211,-0.0182,0,0,0,0,0,-0.0441,-0.0434,-0.04,-0.0395,-0.0386,-0.0352,-0.0339,-0.0321,-0.0294,-0.0284,-0.0258,-0.0235,-0.0217,-0.0206,-0.0187,-0.0175,-0.016,-0.0176,-0.0178,-0.0181,-0.0183,-0.0165,-0.0166,-0.0154,-0.0154,-0.0154,0,0,-0.0452,-0.0433,-0.0429,-0.0402,-0.0381,-0.0372,-0.0343,-0.0327,-0.032,-0.0282,-0.0267,-0.0243,-0.0216,-0.0202,-0.0195,-0.0189,-0.0176,-0.0181,-0.0184,-0.0185,-0.0166,-0.0167,-0.0168,-0.0154,-0.0154,-0.0154,0,0,-0.0471,-0.0453,-0.0455,-0.044,-0.0413,-0.039,-0.0388,-0.0352,-0.0336,-0.0317,-0.029,-0.027,-0.024,-0.022,-0.0207,-0.0213,-0.0191,-0.021,-0.0227,-0.021,-0.0211,-0.0211,-0.0194,-0.0192,-0.0211,-0.0211,-0.0211,0,-0.0487,-0.0483,-0.0452,-0.0452,-0.0444,-0.0401,-0.0404,-0.038,-0.0343,-0.0332,-0.0319,-0.0272,-0.0249,-0.0231,-0.0231,-0.0219,-0.0205,-0.0217,-0.0213,-0.0213,-0.0213,-0.0195,-0.0193,-0.0212,-0.0212,-0.0212,-0.0212,0,-0.0508,-0.0506,-0.0507,-0.0492,-0.0478,-0.0474,-0.0438,-0.0423,-0.0398,-0.0371,-0.0346,-0.0308,-0.0281,-0.0271,-0.0251,-0.0241,-0.0229,-0.0219,-0.0206,-0.0217,-0.0197,-0.0194,-0.0214,-0.0214,-0.0213,-0.0213,0,0,-0.0539,-0.0526,-0.0526,-0.0532,-0.0501,-0.0495,-0.048,-0.0454,-0.0447,-0.0406,-0.0393,-0.0354,-0.0327,-0.0311,-0.0282,-0.0262,-0.0248,-0.0243,-0.0241,-0.0227,-0.0209,-0.0171,-0.0165,-0.0237,-0.0237,-0.0236,-0.0195,0,-0.0566,-0.0584,-0.0562,-0.0576,-0.0584,-0.0546,-0.054,-0.0511,-0.0474,-0.0449,-0.0401,-0.0378,-0.0344,-0.0332,-0.0306,-0.0261,-0.0243,-0.026,-0.02,-0.0198,-0.0164,-0.0161,-0.0169,-0.013,-0.0193,-0.0192,-0.0192,0,-0.0593,-0.0604,-0.0627,-0.063,-0.0629,-0.0626,-0.0608,-0.0594,-0.0543,-0.0518,-0.0474,-0.0429,-0.0386,-0.0361,-0.029,-0.0302,-0.0261,-0.0226,-0.0224,-0.0176,-0.0155,-0.0129,-0.0123,-0.0062,-0.0188,-0.0188,-0.0188,0,-0.0639,-0.0647,-0.0671,-0.0672,-0.0666,-0.0667,-0.0655,-0.0616,-0.0609,-0.0552,-0.0539,-0.0474,-0.0444,-0.0383,-0.0292,-0.0297,-0.0211,-0.021,-0.0139,-0.0136,-0.0124,-0.012,-0.0053,-0.017,-0.017,-0.017,-0.017,0,-0.0679,-0.0697,-0.0696,-0.0712,-0.0746,-0.0715,-0.0729,-0.0705,-0.0668,-0.0666,-0.0577,-0.0557,-0.0449,-0.0377,-0.0304,-0.0203,-0.0219,-0.014,-0.0121,-0.0134,-0.0132,-0.0063,-0.0013,-0.0169,-0.0169,-0.0169,-0.017,0,-0.0723,-0.0722,-0.0756,-0.0764,-0.0769,-0.0791,-0.0787,-0.0795,-0.0746,-0.0737,-0.0723,-0.0622,-0.0529,-0.0409,-0.0301,-0.022,-0.0078,-0.0091,-0.0107,-0.0091,0.0025,0.0073,0.0213,0.0224,-0.0018,-0.0017,-0.0016,0,-0.0747,-0.0769,-0.0804,-0.0836,-0.084,-0.0862,-0.0883,-0.0845,-0.0846,-0.0781,-0.0784,-0.0679,-0.0614,-0.0412,-0.0249,-0.0101,-0.0039,-0.0013,-0.0023,0.0037,0.0104,0.0158,0.0159,-0.0022,-0.0021,-0.002,-0.002,0,-0.0795,-0.0807,-0.084,-0.0909,-0.0942,-0.0978,-0.0992,-0.1004,-0.096,-0.0946,-0.0898,-0.0834,-0.0613,-0.0437,-0.0208,-0.011,0.0044,0.0006,0.0068,0.0113,0.0176,0.0192,-0.0054,-0.0013,-0.0014,-0.0014,-0.0015,-0.0015,-0.0829,-0.0874,-0.0922,-0.0989,-0.1033,-0.1081,-0.1118,-0.1128,-0.1141,-0.1122,-0.1016,-0.0931,-0.0608,-0.0286,-0.0163,0.0099,0.01,0.0147,0.0201,0.025,0.0266,0.0043,0.0107,0.0107,0.0107,0.0108,0.0108,0,-0.0877,-0.0929,-0.0999,-0.1079,-0.1146,-0.1144,-0.119,-0.1231,-0.127,-0.1219,-0.1169,-0.0855,-0.0568,-0.0257,0.0159,0.0286,0.0302,0.0339,0.039,0.0378,0.0171,0.0173,0.0255,0.0255,0.0255,0.0254,0.0254,0.0254,-0.0906,-0.099,-0.1034,-0.1163,-0.1216,-0.13,-0.1331,-0.1387,-0.1373,-0.1305,-0.1153,-0.1018,-0.0501,0.0195,0.0517,0.0524,0.0578,0.0596,0.0626,0.0462,0.0447,0.0433,0.0444,0.0582,0.0582,0.0784,0.0787,0.0788]}],[{"header":{"parameterUnit":"m.s-1","parameterCategory":2,"la1":30.2991,"la2":30.254,"lo1":-89.0895,"lo2":-89.0444,"dy":0.0017,"dx":0.0017,"nx":28,"ny":28,"refTime":"2023-10-06T09:00:00:Z","depth":"2","parameterNumber":2,"parameterNumberName":"U-component_of_CURRENTS"},"data":[0,0,0,0,0,0,0,0,0,0,0,0,0,0,0,0,0,0,0,0,0,0,0,0,0,0,0,0,0,0,0,0,0,0,0,0,0,0,0,0,0,0,0,0,0,0,0,0,0,0,0,0,0,0,0,0,0,0,-0.194,-0.194,0,-0.195,-0.195,-0.195,-0.1939,-0.1938,-0.1938,-0.1938,-0.1912,-0.1911,-0.1911,0,0,0,0,0,0,0,0,0,0,0,0,0,-0.1904,-0.1905,-0.194,-0.194,-0.1941,-0.195,-0.195,-0.195,-0.1939,-0.1938,-0.1938,-0.1938,-0.1912,-0.1911,-0.1911,0,0,0,0,0,0,0,0,0,0,0,0,0,-0.1916,-0.1905,-0.194,-0.1937,-0.1937,-0.195,-0.195,-0.195,-0.1939,-0.1938,-0.1938,-0.1937,-0.1912,-0.1911,-0.1911,-0.1914,0,0,-0.1909,-0.1908,0,0,0,0,0,0,0,0,-0.1915,-0.1917,-0.1937,-0.1938,-0.1938,-0.1944,-0.1928,-0.1937,-0.1939,-0.1936,-0.1938,-0.1937,-0.1921,-0.1919,-0.192,-0.1913,-0.1912,-0.1909,-0.1908,-0.1908,-0.1908,0,0,0,0,0,0,0,-0.1914,-0.1916,-0.1942,-0.1938,-0.1938,-0.1933,-0.1934,-0.1929,-0.1928,-0.1936,-0.1936,-0.194,-0.192,-0.1921,-0.1919,-0.1912,-0.1909,-0.1908,-0.1908,-0.1907,-0.1921,-0.1922,0,0,0,0,0,0,-0.1918,-0.1916,-0.1942,-0.1943,-0.1927,-0.1934,-0.1936,-0.1941,-0.1929,-0.1928,-0.194,-0.194,-0.1922,-0.192,-0.1918,-0.1932,-0.1908,-0.1907,-0.1907,-0.1921,-0.1921,-0.1922,0,0,0,0,0,0,-0.1917,-0.192,-0.1941,-0.1931,-0.1933,-0.1936,-0.1942,-0.1941,-0.1942,-0.1933,-0.1931,-0.1941,-0.1922,-0.1919,-0.1919,-0.193,-0.1907,-0.1906,-0.192,-0.1921,-0.1922,-0.1953,0,0,0,0,0,0,-0.1916,-0.192,-0.192,-0.1931,-0.1934,-0.1952,-0.1942,-0.1942,-0.1946,-0.1944,-0.1933,-0.193,-0.1921,-0.192,-0.1919,-0.1929,-0.1906,-0.1919,-0.192,-0.1922,-0.1951,-0.1955,-0.1959,0,0,0,0,0,-0.1914,-0.192,-0.192,-0.1923,-0.1936,-0.1952,-0.1954,-0.1952,-0.1946,-0.195,-0.1944,-0.193,-0.1928,-0.192,-0.1918,-0.1929,-0.1918,-0.192,-0.1921,-0.1949,-0.1954,-0.1958,0,0,0,0,0,0,-0.1904,-0.192,-0.192,-0.193,-0.1941,-0.1951,-0.1953,-0.1954,-0.1953,-0.1948,-0.1938,-0.1935,-0.1941,-0.1932,-0.1923,-0.1938,-0.1922,-0.1923,-0.1944,-0.1949,-0.1952,-0.1953,-0.1905,0,0,0,0,0,-0.1903,-0.1909,-0.1927,-0.1932,-0.1939,-0.1946,-0.195,-0.1953,-0.1956,-0.1955,-0.1949,-0.1944,-0.1948,-0.1945,-0.1944,-0.1949,-0.1945,-0.1955,-0.1959,-0.1963,-0.1962,-0.1973,-0.1977,-0.1928,-0.1928,-0.1928,0,0,-0.19,-0.1909,-0.1912,-0.193,-0.1935,-0.1953,-0.1947,-0.1957,-0.197,-0.1952,-0.196,-0.1957,-0.1953,-0.1962,-0.1964,-0.1954,-0.1976,-0.1965,-0.1967,-0.1966,-0.1975,-0.198,-0.1984,-0.1929,-0.1929,-0.1929,0,0,-0.19,-0.1906,-0.1913,-0.1928,-0.1943,-0.1953,-0.1958,-0.1971,-0.1974,-0.1985,-0.198,-0.1985,-0.1982,-0.1987,-0.1989,-0.2013,-0.1998,-0.2011,-0.2027,-0.2037,-0.2041,-0.2045,-0.2052,-0.2056,-0.2011,-0.2011,-0.2011,0,-0.1894,-0.1907,-0.1917,-0.1933,-0.1945,-0.1955,-0.1971,-0.1983,-0.1994,-0.2002,-0.1991,-0.2004,-0.1998,-0.2018,-0.2025,-0.2022,-0.2021,-0.2009,-0.2042,-0.2045,-0.2048,-0.2055,-0.2058,-0.2012,-0.2012,-0.2012,-0.2012,0,-0.1902,-0.1916,-0.1922,-0.1946,-0.1963,-0.1976,-0.2001,-0.2016,-0.2019,-0.2029,-0.2046,-0.2042,-0.2049,-0.2052,-0.2042,-0.2064,-0.2056,-0.2047,-0.2029,-0.2055,-0.206,-0.2064,-0.2015,-0.2014,-0.2014,-0.2013,0,0,-0.1876,-0.1919,-0.192,-0.1937,-0.1969,-0.1986,-0.2016,-0.2045,-0.2067,-0.2073,-0.2095,-0.21,-0.2094,-0.2095,-0.2089,-0.2095,-0.2115,-0.2077,-0.2076,-0.2081,-0.2135,-0.2149,-0.2154,-0.211,-0.211,-0.2111,-0.2131,0,-0.1875,-0.1905,-0.1928,-0.196,-0.1979,-0.2009,-0.2039,-0.2069,-0.2089,-0.2115,-0.2119,-0.2132,-0.2113,-0.2114,-0.212,-0.2116,-0.2124,-0.211,-0.211,-0.211,-0.2119,-0.2159,-0.1943,-0.1945,-0.2134,-0.2135,-0.2135,0,-0.1868,-0.1893,-0.192,-0.1973,-0.1984,-0.2006,-0.2057,-0.2087,-0.2132,-0.2143,-0.2161,-0.2166,-0.2178,-0.2155,-0.2165,-0.2154,-0.2146,-0.2142,-0.2143,-0.2147,-0.2132,-0.1949,-0.1943,-0.2141,-0.214,-0.214,-0.2139,0,-0.1838,-0.1887,-0.1906,-0.1923,-0.1984,-0.2003,-0.2035,-0.2088,-0.2121,-0.2158,-0.2181,-0.2195,-0.2205,-0.2198,-0.2195,-0.2176,-0.2209,-0.2182,-0.2191,-0.2192,-0.2003,-0.1987,-0.2193,-0.2193,-0.2193,-0.2193,-0.2193,0,-0.1823,-0.184,-0.1893,-0.1905,-0.1937,-0.1986,-0.2025,-0.2062,-0.2121,-0.2157,-0.2186,-0.2215,-0.2215,-0.2238,-0.2217,-0.2226,-0.2228,-0.2205,-0.2204,-0.2011,-0.1996,-0.2158,-0.2154,-0.2194,-0.2193,-0.2193,-0.2193,0,-0.1779,-0.1816,-0.1842,-0.1901,-0.1921,-0.1939,-0.2015,-0.2043,-0.2107,-0.2156,-0.2168,-0.2234,-0.2258,-0.2273,-0.2274,-0.2262,-0.2261,-0.2263,-0.2044,-0.2019,-0.2226,-0.2223,-0.2265,-0.2266,-0.2266,-0.2267,-0.2267,0,-0.1755,-0.1761,-0.182,-0.1832,-0.1853,-0.1896,-0.1924,-0.2011,-0.2044,-0.2162,-0.2175,-0.2246,-0.2281,-0.2319,-0.2273,-0.226,-0.2293,-0.2081,-0.2014,-0.2241,-0.2236,-0.2232,-0.2228,-0.1765,-0.1761,-0.1758,-0.1756,0,-0.1694,-0.1711,-0.173,-0.1765,-0.1791,-0.183,-0.1879,-0.1916,-0.2016,-0.2083,-0.2171,-0.2226,-0.2264,-0.2167,-0.2173,-0.2124,-0.2065,-0.2025,-0.23,-0.1808,-0.1779,-0.1772,-0.1782,-0.1729,-0.1732,-0.1734,-0.1735,-0.1736,-0.1627,-0.1626,-0.1651,-0.1678,-0.1712,-0.1741,-0.1751,-0.1819,-0.1888,-0.1958,-0.2071,-0.2092,-0.2076,-0.1995,-0.1914,-0.1837,-0.1978,-0.1861,-0.1865,-0.1873,-0.184,-0.1817,-0.1766,-0.1769,-0.1771,-0.1774,-0.1775,0,-0.1532,-0.1549,-0.1564,-0.1595,-0.159,-0.1647,-0.1698,-0.1683,-0.1728,-0.182,-0.1883,-0.173,-0.1688,-0.1682,-0.153,-0.1531,-0.1452,-0.1457,-0.1321,-0.135,-0.1375,-0.1311,-0.1099,-0.1098,-0.1096,-0.1094,0,0,-0.1482,-0.1461,-0.1477,-0.1453,-0.1477,-0.1445,-0.1453,-0.1459,-0.1493,-0.1501,-0.1519,-0.1641,-0.1677,-0.1399,-0.132,-0.1196,-0.1261,-0.1136,-0.1675,-0.1545,-0.1568,-0.1603,-0.1539,0,0,0,0,0]},{"header":{"parameterUnit":"m.s-1","parameterCategory":2,"la1":30.2991,"la2":30.254,"lo1":-89.0895,"lo2":-89.0444,"dy":0.0017,"dx":0.0017,"nx":28,"ny":28,"refTime":"2023-10-06T09:00:00:Z","depth":"2","parameterNumber":3,"parameterNumberName":"V-component_of_CURRENTS"},"data":[0,0,0,0,0,0,0,0,0,0,0,0,0,0,0,0,0,0,0,0,0,0,0,0,0,0,0,0,0,0,0,0,0,0,0,0,0,0,0,0,0,0,0,0,0,0,0,0,0,0,0,0,0,0,0,0,0,0,-0.0288,-0.0287,0,-0.0224,-0.0223,-0.0223,-0.0186,-0.0186,-0.0186,-0.0186,-0.0131,-0.013,-0.0128,0,0,0,0,0,0,0,0,0,0,0,0,0,-0.0349,-0.0349,-0.0288,-0.0287,-0.0287,-0.0224,-0.0223,-0.0222,-0.0186,-0.0186,-0.0186,-0.0186,-0.0132,-0.013,-0.0128,0,0,0,0,0,0,0,0,0,0,0,0,0,-0.0308,-0.0348,-0.0288,-0.0261,-0.0258,-0.0224,-0.0223,-0.0222,-0.0186,-0.0186,-0.0186,-0.0186,-0.0132,-0.013,-0.0128,-0.0119,0,0,-0.0122,-0.0121,0,0,0,0,0,0,0,0,-0.031,-0.0306,-0.0266,-0.0263,-0.0259,-0.0213,-0.0225,-0.0188,-0.0186,-0.0213,-0.0186,-0.0186,-0.016,-0.0155,-0.0143,-0.0117,-0.0114,-0.0122,-0.0121,-0.012,-0.0119,0,0,0,0,0,0,0,-0.0313,-0.0308,-0.0263,-0.0265,-0.0261,-0.0242,-0.0236,-0.0217,-0.0188,-0.0211,-0.0208,-0.0201,-0.0158,-0.0145,-0.0142,-0.0113,-0.0122,-0.012,-0.0119,-0.0118,-0.0082,-0.0083,0,0,0,0,0,0,-0.0323,-0.0311,-0.0265,-0.0261,-0.0285,-0.0241,-0.0234,-0.0228,-0.0188,-0.0182,-0.0201,-0.02,-0.0149,-0.0144,-0.014,-0.0133,-0.012,-0.0118,-0.0117,-0.0082,-0.0083,-0.0083,0,0,0,0,0,0,-0.0325,-0.032,-0.0267,-0.0284,-0.0276,-0.024,-0.0233,-0.0227,-0.0215,-0.0181,-0.0175,-0.0197,-0.0149,-0.0143,-0.0124,-0.013,-0.0117,-0.0115,-0.0082,-0.0082,-0.0083,-0.0115,0,0,0,0,0,0,-0.0327,-0.0321,-0.0322,-0.0285,-0.0276,-0.0252,-0.0233,-0.0226,-0.0211,-0.0208,-0.0175,-0.0169,-0.0148,-0.0127,-0.0122,-0.0127,-0.0113,-0.0082,-0.0082,-0.0083,-0.0113,-0.0116,-0.0119,0,0,0,0,0,-0.0329,-0.0332,-0.0322,-0.0317,-0.0278,-0.0253,-0.0246,-0.022,-0.0211,-0.0209,-0.0184,-0.0171,-0.0127,-0.0125,-0.0119,-0.0124,-0.0081,-0.0082,-0.0083,-0.0112,-0.0116,-0.0118,0,0,0,0,0,0,-0.0359,-0.0327,-0.0316,-0.0309,-0.0285,-0.0247,-0.0242,-0.0224,-0.0202,-0.0201,-0.0169,-0.0162,-0.0149,-0.0133,-0.0132,-0.0116,-0.0104,-0.0103,-0.0128,-0.0131,-0.0134,-0.0142,-0.0112,0,0,0,0,0,-0.0367,-0.0361,-0.0327,-0.0322,-0.0313,-0.0279,-0.0266,-0.0249,-0.0223,-0.0212,-0.0188,-0.0165,-0.0147,-0.0136,-0.0117,-0.0106,-0.0091,-0.0107,-0.011,-0.0112,-0.0115,-0.0097,-0.0098,-0.0085,-0.0085,-0.0085,0,0,-0.0378,-0.036,-0.0356,-0.0328,-0.0309,-0.0299,-0.0271,-0.0256,-0.0248,-0.0211,-0.0196,-0.0173,-0.0146,-0.0133,-0.0126,-0.012,-0.0108,-0.0113,-0.0115,-0.0116,-0.0097,-0.0099,-0.01,-0.0085,-0.0085,-0.0085,0,0,-0.0398,-0.0381,-0.0383,-0.0367,-0.0341,-0.0318,-0.0316,-0.0281,-0.0265,-0.0247,-0.0221,-0.0201,-0.0171,-0.0151,-0.0138,-0.0145,-0.0123,-0.0142,-0.0159,-0.0142,-0.0143,-0.0144,-0.0126,-0.0125,-0.0143,-0.0143,-0.0143,0,-0.0415,-0.0411,-0.038,-0.038,-0.0372,-0.033,-0.0333,-0.0309,-0.0272,-0.0262,-0.025,-0.0204,-0.018,-0.0162,-0.0163,-0.0151,-0.0137,-0.0149,-0.0146,-0.0146,-0.0146,-0.0128,-0.0126,-0.0144,-0.0144,-0.0144,-0.0144,0,-0.0436,-0.0434,-0.0435,-0.042,-0.0406,-0.0402,-0.0367,-0.0352,-0.0329,-0.0302,-0.0278,-0.024,-0.0213,-0.0203,-0.0183,-0.0173,-0.0162,-0.0152,-0.0138,-0.0149,-0.013,-0.0127,-0.0147,-0.0146,-0.0146,-0.0145,0,0,-0.0468,-0.0454,-0.0454,-0.0461,-0.043,-0.0424,-0.0409,-0.0383,-0.0377,-0.0336,-0.0324,-0.0285,-0.0259,-0.0243,-0.0214,-0.0195,-0.0181,-0.0176,-0.0174,-0.016,-0.0143,-0.0106,-0.01,-0.017,-0.017,-0.0169,-0.0129,0,-0.0496,-0.0513,-0.0491,-0.0504,-0.0512,-0.0474,-0.0469,-0.044,-0.0404,-0.0379,-0.0331,-0.0309,-0.0275,-0.0264,-0.0239,-0.0194,-0.0176,-0.0193,-0.0133,-0.0131,-0.0098,-0.0096,-0.0066,-0.0025,-0.0127,-0.0126,-0.0126,0,-0.0523,-0.0533,-0.0556,-0.0558,-0.0558,-0.0555,-0.0537,-0.0523,-0.0472,-0.0447,-0.0404,-0.036,-0.0318,-0.0293,-0.0223,-0.0235,-0.0195,-0.016,-0.0157,-0.011,-0.009,-0.003,-0.0016,-0.0122,-0.0122,-0.0122,-0.0123,0,-0.0569,-0.0577,-0.0601,-0.0602,-0.0595,-0.0597,-0.0585,-0.0545,-0.0538,-0.0483,-0.0469,-0.0405,-0.0376,-0.0315,-0.0225,-0.023,-0.0145,-0.0144,-0.0075,-0.0072,-0.0027,-0.002,-0.0104,-0.0104,-0.0105,-0.0105,-0.0105,0,-0.061,-0.0627,-0.0627,-0.0642,-0.0676,-0.0645,-0.0659,-0.0635,-0.0599,-0.0597,-0.0508,-0.0489,-0.0381,-0.031,-0.0237,-0.0137,-0.0153,-0.0075,-0.0057,-0.0037,-0.0032,-0.0101,-0.0102,-0.0103,-0.0103,-0.0104,-0.0104,0,-0.0655,-0.0653,-0.0687,-0.0695,-0.07,-0.0722,-0.0718,-0.0725,-0.0677,-0.0668,-0.0654,-0.0553,-0.0462,-0.0342,-0.0235,-0.0155,-0.0064,-0.0027,-0.0006,0.0014,-0.0004,-0.0006,0.0041,0.0042,0.0044,0.0045,0.0046,0,-0.0679,-0.0701,-0.0736,-0.0767,-0.0772,-0.0794,-0.0814,-0.0776,-0.0777,-0.0711,-0.0715,-0.061,-0.0542,-0.0342,-0.0166,-0.0016,-0.004,0.0088,0.0083,-0.0001,0.0012,0.0007,0.0003,0.0129,0.013,0.0131,0.0133,0,-0.0727,-0.0739,-0.0772,-0.0841,-0.0874,-0.0909,-0.0922,-0.0935,-0.0889,-0.0871,-0.0823,-0.0756,-0.0525,-0.0318,-0.0086,0.0006,0.007,0.0117,0.0031,0.0087,0.0085,0.0097,0.0089,0.0144,0.0143,0.0142,0.0141,0.0141,-0.0762,-0.0806,-0.0855,-0.0921,-0.0965,-0.1012,-0.1048,-0.1036,-0.1042,-0.0981,-0.0901,-0.076,-0.0524,-0.0181,-0.0001,0.0182,0.0146,0.0195,0.019,0.0183,0.0186,0.0187,0.0265,0.0265,0.0264,0.0264,0.0264,0,-0.08,-0.0862,-0.0932,-0.1011,-0.1064,-0.1075,-0.1119,-0.1115,-0.112,-0.1023,-0.0939,-0.0663,-0.0392,-0.0163,0.0146,0.0306,0.0304,0.0324,0.0296,0.0284,0.0274,0.028,0.0385,0.0386,0.0386,0.0386,0,0,-0.0826,-0.0904,-0.0948,-0.1068,-0.113,-0.1187,-0.1217,-0.1195,-0.1126,-0.103,-0.0902,-0.0684,-0.0397,-0.0157,0.0072,0.0229,0.0203,0.0248,0.014,0.0069,0.0056,0.0198,0.0195,0,0,0,0,0]}],[{"header":{"parameterUnit":"m.s-1","parameterCategory":2,"la1":30.2991,"la2":30.254,"lo1":-89.0895,"lo2":-89.0444,"dy":0.0017,"dx":0.0017,"nx":28,"ny":28,"refTime":"2023-10-06T09:00:00:Z","depth":"4","parameterNumber":2,"parameterNumberName":"U-component_of_CURRENTS"},"data":[0,0,0,0,0,0,0,0,0,0,0,0,0,0,0,0,0,0,0,0,0,0,0,0,0,0,0,0,0,0,0,0,0,0,0,0,0,0,0,0,0,0,0,0,0,0,0,0,0,0,0,0,0,0,0,0,0,0,-0.1276,-0.1276,0,-0.1315,-0.1316,-0.1316,-0.1349,-0.1349,-0.1349,-0.135,-0.1408,-0.1409,-0.141,0,0,0,0,0,0,0,0,0,0,0,0,0,-0.1212,-0.1213,-0.1276,-0.1277,-0.1277,-0.1315,-0.1316,-0.1316,-0.1348,-0.1349,-0.135,-0.135,-0.1407,-0.1409,-0.141,0,0,0,0,0,0,0,0,0,0,0,0,0,-0.1243,-0.1213,-0.1276,-0.1299,-0.1301,-0.1315,-0.1316,-0.1316,-0.1348,-0.1349,-0.135,-0.135,-0.1407,-0.1409,-0.141,-0.1406,0,0,-0.1415,-0.1416,0,0,0,0,0,0,0,0,-0.1241,-0.1245,-0.1295,-0.1297,-0.13,-0.1329,-0.1314,-0.1348,-0.1348,-0.1329,-0.135,-0.1351,-0.1383,-0.1387,-0.1391,-0.1409,-0.1411,-0.1415,-0.1416,-0.1417,-0.1418,0,0,0,0,0,0,0,-0.1239,-0.1244,-0.129,-0.1295,-0.1299,-0.1302,-0.1307,-0.1321,-0.1351,-0.1331,-0.1334,-0.134,-0.1385,-0.1389,-0.1392,-0.1412,-0.1415,-0.1417,-0.1418,-0.1418,-0.1498,-0.15,0,0,0,0,0,0,-0.1237,-0.1242,-0.1289,-0.1291,-0.1273,-0.1302,-0.1308,-0.1318,-0.1351,-0.1357,-0.1339,-0.1341,-0.1386,-0.139,-0.1395,-0.1452,-0.1417,-0.1419,-0.142,-0.1497,-0.1499,-0.15,0,0,0,0,0,0,-0.1236,-0.1241,-0.1287,-0.1268,-0.1275,-0.1303,-0.1313,-0.1318,-0.1345,-0.1357,-0.1363,-0.1364,-0.1387,-0.1392,-0.1426,-0.1452,-0.1419,-0.1421,-0.1496,-0.1498,-0.1499,-0.1527,0,0,0,0,0,0,-0.1234,-0.124,-0.1256,-0.1268,-0.1276,-0.1311,-0.1313,-0.1319,-0.1347,-0.1351,-0.138,-0.1385,-0.1388,-0.1424,-0.1428,-0.1454,-0.1422,-0.1495,-0.1497,-0.1499,-0.1525,-0.153,-0.1534,0,0,0,0,0,-0.1231,-0.1247,-0.1256,-0.1263,-0.1293,-0.1311,-0.1316,-0.1336,-0.1348,-0.1363,-0.1384,-0.1385,-0.1441,-0.1426,-0.1431,-0.1457,-0.1494,-0.1496,-0.1499,-0.1523,-0.1529,-0.1534,0,0,0,0,0,0,-0.1227,-0.1252,-0.1263,-0.1286,-0.1305,-0.1318,-0.1336,-0.1349,-0.1376,-0.1386,-0.1396,-0.1403,-0.1443,-0.1446,-0.143,-0.1487,-0.1469,-0.1472,-0.1486,-0.1491,-0.1496,-0.1492,-0.1424,0,0,0,0,0,-0.1233,-0.1253,-0.1273,-0.1293,-0.1304,-0.1324,-0.1338,-0.1353,-0.1374,-0.1387,-0.1408,-0.1431,-0.1453,-0.1469,-0.1487,-0.1516,-0.1513,-0.1538,-0.1542,-0.1546,-0.1547,-0.1563,-0.1569,-0.1508,-0.1508,-0.1508,0,0,-0.1238,-0.1253,-0.1266,-0.1294,-0.1311,-0.1332,-0.1335,-0.1363,-0.1387,-0.1389,-0.1434,-0.1449,-0.1464,-0.1498,-0.1517,-0.1507,-0.1562,-0.1549,-0.1552,-0.1551,-0.1567,-0.1572,-0.1577,-0.151,-0.151,-0.1509,0,0,-0.1247,-0.1271,-0.1288,-0.1307,-0.1337,-0.135,-0.1364,-0.1391,-0.1413,-0.145,-0.146,-0.149,-0.1525,-0.1539,-0.155,-0.159,-0.1585,-0.1602,-0.1622,-0.1639,-0.1644,-0.1648,-0.1649,-0.1653,-0.1605,-0.1605,-0.1605,0,-0.1253,-0.1276,-0.1296,-0.1317,-0.1337,-0.1362,-0.1385,-0.1409,-0.1446,-0.1466,-0.1472,-0.1529,-0.1543,-0.158,-0.1594,-0.16,-0.1603,-0.1599,-0.1644,-0.1648,-0.1652,-0.1652,-0.1656,-0.1606,-0.1606,-0.1606,-0.1606,0,-0.1265,-0.1295,-0.1307,-0.1343,-0.1368,-0.1392,-0.1425,-0.1459,-0.1488,-0.1508,-0.1559,-0.1576,-0.1608,-0.1621,-0.162,-0.166,-0.165,-0.1646,-0.1627,-0.1659,-0.1658,-0.1661,-0.1609,-0.1608,-0.1608,-0.1607,0,0,-0.1246,-0.1305,-0.1312,-0.1337,-0.1385,-0.1405,-0.1453,-0.1495,-0.1531,-0.1568,-0.1608,-0.1645,-0.1655,-0.1668,-0.1676,-0.169,-0.1717,-0.1682,-0.1682,-0.1676,-0.1746,-0.165,-0.1644,-0.1722,-0.1723,-0.1724,-0.1732,0,-0.1251,-0.1294,-0.1324,-0.1372,-0.1396,-0.1441,-0.1481,-0.1527,-0.1568,-0.1613,-0.1639,-0.1678,-0.1673,-0.1693,-0.1709,-0.1717,-0.173,-0.1715,-0.172,-0.172,-0.1626,-0.1646,-0.1727,-0.1735,-0.1736,-0.1736,-0.1737,0,-0.1244,-0.1279,-0.1325,-0.1391,-0.1407,-0.1443,-0.1515,-0.1555,-0.162,-0.1649,-0.169,-0.1713,-0.1746,-0.1735,-0.1763,-0.1755,-0.1754,-0.1755,-0.1755,-0.1656,-0.1631,-0.1698,-0.1743,-0.1743,-0.1742,-0.1742,-0.1742,0,-0.1209,-0.1276,-0.1316,-0.1338,-0.1416,-0.1452,-0.1498,-0.1568,-0.1609,-0.1674,-0.1707,-0.1746,-0.1773,-0.1781,-0.1788,-0.178,-0.181,-0.1797,-0.1709,-0.1702,-0.1774,-0.1769,-0.1816,-0.1816,-0.1816,-0.1816,-0.1816,0,-0.1186,-0.122,-0.1307,-0.1328,-0.1381,-0.1443,-0.1503,-0.1553,-0.1627,-0.1665,-0.1723,-0.1748,-0.1788,-0.1811,-0.1803,-0.1763,-0.1823,-0.171,-0.1698,-0.1785,-0.1782,-0.1776,-0.1771,-0.1816,-0.1816,-0.1816,-0.1816,0,-0.1131,-0.1191,-0.1239,-0.1331,-0.1364,-0.1401,-0.1501,-0.1536,-0.1618,-0.1669,-0.1691,-0.1762,-0.1777,-0.1808,-0.1823,-0.1772,-0.1751,-0.1725,-0.1816,-0.181,-0.1626,-0.1623,-0.1612,-0.1609,-0.1606,-0.1604,-0.1602,0,-0.1102,-0.1123,-0.1226,-0.1256,-0.1299,-0.1369,-0.141,-0.1512,-0.1543,-0.1657,-0.1661,-0.1727,-0.1755,-0.1698,-0.1736,-0.1714,-0.1699,-0.1675,-0.1644,-0.1616,-0.1606,-0.1607,-0.1608,-0.1597,-0.1597,-0.1596,-0.1595,0,-0.1039,-0.1085,-0.1124,-0.119,-0.1243,-0.1294,-0.136,-0.138,-0.1483,-0.1578,-0.1591,-0.1605,-0.1625,-0.1624,-0.1627,-0.161,-0.1679,-0.1646,-0.1651,-0.1621,-0.1598,-0.1591,-0.1595,-0.1585,-0.1587,-0.1588,-0.1588,0,-0.0985,-0.0997,-0.1057,-0.1103,-0.1166,-0.1191,-0.1245,-0.1282,-0.1335,-0.1462,-0.146,-0.1531,-0.1604,-0.1571,-0.157,-0.1549,-0.152,-0.1466,-0.148,-0.1491,-0.1447,-0.14,-0.1313,0,0,0,0,0,-0.0923,-0.0929,-0.0965,-0.1013,-0.1072,-0.1109,-0.1193,-0.1248,-0.1355,-0.1328,-0.1394,-0.1405,-0.1412,-0.1449,-0.14,-0.1508,-0.1522,-0.1445,-0.1466,-0.1531,-0.1543,-0.1502,0,0,0,0,0,0,-0.0882,-0.0911,-0.093,-0.0924,-0.0938,-0.0993,-0.1042,-0.1118,-0.1111,-0.1224,-0.1232,-0.132,-0.1341,-0.1418,-0.137,-0.1381,-0.1366,-0.1496,-0.1492,-0.1525,-0.1535,-0.1544,-0.1507,0,0,0,0,0]},{"header":{"parameterUnit":"m.s-1","parameterCategory":2,"la1":30.2991,"la2":30.254,"lo1":-89.0895,"lo2":-89.0444,"dy":0.0017,"dx":0.0017,"nx":28,"ny":28,"refTime":"2023-10-06T09:00:00:Z","depth":"4","parameterNumber":3,"parameterNumberName":"V-component_of_CURRENTS"},"data":[0,0,0,0,0,0,0,0,0,0,0,0,0,0,0,0,0,0,0,0,0,0,0,0,0,0,0,0,0,0,0,0,0,0,0,0,0,0,0,0,0,0,0,0,0,0,0,0,0,0,0,0,0,0,0,0,0,0,0.0032,0.0033,0,0.0074,0.0074,0.0075,0.0102,0.0102,0.0102,0.0102,0.0132,0.0132,0.0133,0,0,0,0,0,0,0,0,0,0,0,0,0,-0.0002,-0.0002,0.0032,0.0033,0.0033,0.0074,0.0074,0.0075,0.0102,0.0102,0.0102,0.0102,0.0131,0.0132,0.0133,0,0,0,0,0,0,0,0,0,0,0,0,0,0.0023,-0.0002,0.0032,0.0051,0.0054,0.0073,0.0074,0.0075,0.0102,0.0102,0.0102,0.0102,0.0131,0.0132,0.0133,0.0134,0,0,0.0136,0.0136,0,0,0,0,0,0,0,0,0.0022,0.0025,0.0048,0.005,0.0052,0.0083,0.0073,0.0094,0.0102,0.0084,0.0102,0.0103,0.0114,0.0116,0.0124,0.0135,0.0137,0.0136,0.0137,0.0137,0.0137,0,0,0,0,0,0,0,0.002,0.0023,0.0049,0.0049,0.0051,0.0065,0.0069,0.0077,0.0097,0.0085,0.0087,0.0092,0.0115,0.0123,0.0125,0.0137,0.0136,0.0137,0.0137,0.0138,0.0143,0.0143,0,0,0,0,0,0,0.0013,0.0021,0.0047,0.005,0.0037,0.0066,0.007,0.0073,0.0097,0.0101,0.0091,0.0093,0.0121,0.0124,0.0126,0.0121,0.0137,0.0138,0.0138,0.0144,0.0143,0.0143,0,0,0,0,0,0,0.0012,0.0015,0.0046,0.0037,0.0041,0.0066,0.0069,0.0074,0.008,0.0102,0.0106,0.0093,0.0121,0.0124,0.0132,0.0123,0.0138,0.0139,0.0144,0.0144,0.0143,0.0116,0,0,0,0,0,0,0.0011,0.0014,0.0012,0.0036,0.0042,0.0053,0.0069,0.0074,0.0082,0.0084,0.0104,0.0108,0.0122,0.0131,0.0133,0.0124,0.014,0.0145,0.0144,0.0143,0.0117,0.0115,0.0112,0,0,0,0,0,0.001,0.0005,0.0011,0.0014,0.0038,0.0052,0.0056,0.0075,0.0082,0.0082,0.0098,0.0107,0.0127,0.0131,0.0134,0.0125,0.0145,0.0144,0.0143,0.0119,0.0115,0.0112,0,0,0,0,0,0,-0.001,0.0008,0.0015,0.0017,0.0031,0.0057,0.0058,0.0071,0.0083,0.0083,0.0105,0.0109,0.0111,0.0121,0.0125,0.0124,0.0136,0.0136,0.0116,0.0113,0.0111,0.0105,0.0141,0,0,0,0,0,-0.0017,-0.0016,0.0005,0.0005,0.001,0.0032,0.004,0.0052,0.0068,0.0074,0.0088,0.0101,0.011,0.0114,0.0123,0.0124,0.0138,0.0119,0.0116,0.0114,0.0111,0.0125,0.0124,0.014,0.014,0.014,0,0,-0.0025,-0.0015,-0.0014,0.0001,0.0013,0.0015,0.0037,0.0044,0.0046,0.0074,0.0077,0.0092,0.0108,0.011,0.0111,0.0117,0.0117,0.0113,0.011,0.0109,0.0124,0.0123,0.0121,0.0139,0.0139,0.0139,0,0,-0.0041,-0.0032,-0.0037,-0.003,-0.0016,-0.0001,-0.0002,0.002,0.0028,0.0035,0.0054,0.0064,0.0077,0.009,0.0097,0.0084,0.0102,0.0082,0.0065,0.0079,0.0078,0.0077,0.0094,0.0095,0.0081,0.0081,0.0081,0,-0.0053,-0.0056,-0.0037,-0.0041,-0.004,-0.0012,-0.002,-0.0005,0.0016,0.002,0.0029,0.0052,0.0067,0.0074,0.007,0.0078,0.009,0.0077,0.0076,0.0075,0.0075,0.0093,0.0094,0.008,0.008,0.008,0.008,0,-0.0072,-0.0076,-0.008,-0.0076,-0.0072,-0.0074,-0.0054,-0.0048,-0.0035,-0.0018,-0.0009,0.0016,0.003,0.0035,0.005,0.0052,0.0063,0.0071,0.0084,0.0072,0.0091,0.0093,0.0078,0.0078,0.0079,0.0079,0,0,-0.009,-0.0094,-0.0095,-0.0106,-0.0093,-0.0094,-0.0091,-0.008,-0.0081,-0.0056,-0.0054,-0.0032,-0.0013,-0.0004,0.0017,0.0031,0.0042,0.0047,0.0049,0.0065,0.0075,0.0096,0.01,0.005,0.005,0.0051,0.009,0,-0.0111,-0.0136,-0.0126,-0.0148,-0.016,-0.014,-0.0144,-0.0131,-0.0111,-0.0099,-0.0065,-0.0056,-0.0029,-0.0025,-0.0005,0.0031,0.0046,0.0031,0.0084,0.0086,0.0107,0.0103,0.0051,0.0092,0.0092,0.0093,0.0093,0,-0.0131,-0.0147,-0.0177,-0.0195,-0.0198,-0.0206,-0.0208,-0.0205,-0.0175,-0.0162,-0.0134,-0.0103,-0.0073,-0.0053,0.0005,-0.0006,0.0029,0.0059,0.0061,0.0091,0.011,0.0107,0.0097,0.0097,0.0096,0.0096,0.0096,0,-0.0157,-0.018,-0.0209,-0.0215,-0.0229,-0.024,-0.0243,-0.0226,-0.0228,-0.0196,-0.0192,-0.0144,-0.0126,-0.0073,0.0003,-0.0002,0.0071,0.0072,0.0124,0.0126,0.0107,0.0108,0.0105,0.0105,0.0105,0.0105,0.0104,0,-0.0181,-0.0203,-0.0228,-0.0244,-0.0286,-0.0278,-0.0306,-0.0296,-0.0283,-0.0288,-0.0227,-0.0214,-0.0132,-0.0071,-0.0007,0.0074,0.0066,0.0121,0.0137,0.0095,0.0094,0.0109,0.0109,0.0106,0.0106,0.0105,0.0105,0,-0.02,-0.0214,-0.0254,-0.0286,-0.03,-0.0329,-0.0355,-0.037,-0.0348,-0.0349,-0.0343,-0.027,-0.0194,-0.0096,-0.0004,0.0056,0.0134,0.0163,0.012,0.0133,0.0178,0.0176,0.0211,0.0212,0.0213,0.0213,0.0214,0,-0.0209,-0.0232,-0.029,-0.0325,-0.0342,-0.0383,-0.0414,-0.0409,-0.0416,-0.0382,-0.0382,-0.0306,-0.0249,-0.0096,0.0006,0.0139,0.0156,0.02,0.018,0.0177,0.0189,0.0185,0.0182,0.0216,0.0216,0.0216,0.0216,0,-0.0228,-0.0252,-0.0289,-0.0365,-0.0411,-0.0458,-0.049,-0.0501,-0.0487,-0.0471,-0.0416,-0.0323,-0.023,-0.0104,0.0012,0.0105,0.0175,0.021,0.0208,0.0188,0.0183,0.0193,0.0189,0.0219,0.0219,0.0219,0.0218,0,-0.0241,-0.0279,-0.0335,-0.04,-0.0463,-0.051,-0.0527,-0.053,-0.0531,-0.0482,-0.0465,-0.035,-0.0282,-0.0121,-0.0015,0.0086,0.0098,0.0125,0.0128,0.0126,0.0096,0.0077,0.0092,0,0,0,0,0,-0.0248,-0.0296,-0.0364,-0.0437,-0.05,-0.0533,-0.0568,-0.0571,-0.0557,-0.0528,-0.0494,-0.0403,-0.0235,-0.0154,-0.0054,-0.0008,0.0113,0.0113,0.0144,0.0237,0.0233,0.0215,0,0,0,0,0,0,-0.0256,-0.032,-0.0364,-0.045,-0.0503,-0.0566,-0.059,-0.0584,-0.0556,-0.0526,-0.0438,-0.0379,-0.0218,-0.0299,-0.0054,-0.0021,0.0014,0.0196,0.0198,0.0239,0.0235,0.0232,0.0213,0,0,0,0,0]}]]